Litchfield, MN

6:01 PM CDT on September 26, 2016 (GMT -0500)
Litchfield Municipal

Weather History for KLJF - October, 2011

Change the Weather History Date:

Saturday, October 1, 2011

  Actual Average Record
Temperature  
Mean Temperature 48 °F -  
Max Temperature 62 °F 69 °F 88 °F (1963)
Min Temperature 35 °F 43 °F 27 °F (1974)
Degree Days  
Heating Degree Days 16    
Moisture  
Dew Point 36 °F    
Average Humidity 64    
Maximum Humidity 100    
Minimum Humidity 34    
Precipitation  
Precipitation 0.00 in - - ()
Sea Level Pressure  
Sea Level Pressure 30.27 in    
Wind  
Wind Speed 7 mph (SE)    
Max Wind Speed 9 mph    
Max Gust Speed 20 mph    
Visibility 10 miles    
Events      
Averages and records for this station are not official NWS values.
T = Trace of Precipitation, MM = Missing Value Source: NWS Daily Summary

Daily Weather History Graph

Daily Weather History Graph

Search for Another Location

Airport or City:

Trip Planner

Search our weather history database for the weather conditions in past years. The results will help you decide how hot, cold, wet, or windy it might be!

Date:

Astronomy

Oct. 01, 2011 Rise Set
Actual Time 7:15 AM CDT 6:58 PM CDT
Civil Twilight 6:46 AM CDT 7:28 PM CDT
Nautical Twilight 6:12 AM CDT 8:02 PM CDT
Astronomical Twilight 5:37 AM CDT 8:36 PM CDT
Moon 12:38 PM CDT (10/1) 9:41 PM CDT (10/1)
Length of Visible Light 12h 41m
Length of Day
11h 43m
Waxing Crescent, 24% of the Moon is Illuminated
Oct 1
Waxing Crescent
Oct 3
First Quarter
Oct 11
Full
Oct 19
Last Quarter
Oct 26
New

Hourly Weather History & Observations

Time (CDT) Temp. Windchill Dew Point Humidity Pressure Visibility Wind Dir Wind Speed Gust Speed Precip Events Conditions
12:13 AM 42.8 °F 38.6 °F 37.4 °F 81% 30.28 in 10.0 mi ESE 6.9 mph - N/A   Clear
12:33 AM 41.0 °F 36.4 °F 37.4 °F 87% 30.28 in 10.0 mi SE 6.9 mph - N/A   Clear
12:53 AM 42.8 °F 37.5 °F 37.4 °F 81% 30.29 in 10.0 mi SE 9.2 mph - N/A   Clear
1:13 AM 39.2 °F 33.0 °F 35.6 °F 87% 30.29 in 10.0 mi ESE 9.2 mph - N/A   Clear
1:33 AM 41.0 °F 35.2 °F 35.6 °F 81% 30.29 in 10.0 mi ESE 9.2 mph - N/A   Clear
1:53 AM 41.0 °F 36.4 °F 35.6 °F 81% 30.29 in 10.0 mi SE 6.9 mph - N/A   Clear
2:13 AM 39.2 °F 35.9 °F 35.6 °F 87% 30.29 in 10.0 mi SE 4.6 mph - N/A   Clear
2:33 AM 37.4 °F 33.8 °F 35.6 °F 93% 30.29 in 10.0 mi SE 4.6 mph - N/A   Clear
2:53 AM 39.2 °F 35.0 °F 35.6 °F 87% 30.30 in 10.0 mi SE 5.8 mph - N/A   Clear
3:13 AM 39.2 °F 35.9 °F 35.6 °F 87% 30.30 in 10.0 mi SE 4.6 mph - N/A   Clear
3:33 AM 39.2 °F 34.2 °F 35.6 °F 87% 30.30 in 10.0 mi SE 6.9 mph - N/A   Clear
4:13 AM 37.4 °F 33.8 °F 35.6 °F 93% 30.30 in 10.0 mi SSE 4.6 mph - N/A   Clear
4:33 AM 37.4 °F 33.8 °F 35.6 °F 93% 30.30 in 10.0 mi SE 4.6 mph - N/A   Clear
4:52 AM 39.2 °F 35.0 °F 35.6 °F 87% 30.31 in 10.0 mi SSE 5.8 mph - N/A   Clear
5:13 AM 39.2 °F 35.0 °F 35.6 °F 87% 30.31 in 10.0 mi SE 5.8 mph - N/A   Clear
5:33 AM 39.2 °F 34.2 °F 35.6 °F 87% 30.31 in 10.0 mi SE 6.9 mph - N/A   Clear
5:54 AM 37.4 °F 32.8 °F 35.6 °F 93% 30.31 in 10.0 mi SE 5.8 mph - N/A   Clear
6:13 AM 37.4 °F 32.1 °F 35.6 °F 93% 30.31 in 10.0 mi SE 6.9 mph - N/A   Clear
6:32 AM 37.4 °F 32.1 °F 35.6 °F 93% 30.31 in 10.0 mi SE 6.9 mph - N/A   Clear
6:53 AM 37.4 °F 33.8 °F 35.6 °F 93% 30.31 in 10.0 mi SE 4.6 mph - N/A   Clear
7:13 AM 35.6 °F 29.9 °F 33.8 °F 93% 30.32 in 10.0 mi SE 6.9 mph - N/A   Clear
7:33 AM 35.6 °F 30.7 °F 35.6 °F 100% 30.32 in 10.0 mi SE 5.8 mph - N/A   Clear
7:53 AM 37.4 °F 32.8 °F 35.6 °F 93% 30.32 in 10.0 mi SE 5.8 mph - N/A   Clear
8:13 AM 39.2 °F 35.9 °F 35.6 °F 87% 30.33 in 10.0 mi SSE 4.6 mph - N/A   Clear
8:33 AM 39.2 °F 35.9 °F 37.4 °F 93% 30.32 in 10.0 mi SSE 4.6 mph - N/A   Clear
8:53 AM 42.8 °F 38.0 °F 37.4 °F 81% 30.33 in 10.0 mi SSE 8.1 mph - N/A   Clear
9:13 AM 44.6 °F 41.4 °F 35.6 °F 71% 30.33 in 10.0 mi SSE 5.8 mph - N/A   Clear
9:33 AM 44.6 °F 40.2 °F 35.6 °F 71% 30.33 in 10.0 mi SSE 8.1 mph - N/A   Clear
9:53 AM 46.4 °F 42.9 °F 37.4 °F 71% 30.34 in 10.0 mi SSE 6.9 mph - N/A   Clear
10:13 AM 46.4 °F 42.4 °F 37.4 °F 71% 30.34 in 10.0 mi SSE 8.1 mph - N/A   Clear
10:33 AM 48.2 °F - 37.4 °F 66% 30.34 in 10.0 mi SSE 5.8 mph - N/A   Clear
10:53 AM 50.0 °F - 37.4 °F 62% 30.34 in 10.0 mi SSE 6.9 mph - N/A   Clear
11:13 AM 51.8 °F - 37.4 °F 58% 30.34 in 10.0 mi SSE 8.1 mph - N/A   Clear
11:33 AM 53.6 °F - 37.4 °F 54% 30.34 in 10.0 mi South 5.8 mph - N/A   Clear
11:53 AM 53.6 °F - 37.4 °F 54% 30.32 in 10.0 mi SSE 6.9 mph - N/A   Clear
12:13 PM 55.4 °F - 37.4 °F 51% 30.32 in 10.0 mi SSE 9.2 mph - N/A   Clear
12:34 PM 55.4 °F - 37.4 °F 51% 30.31 in 10.0 mi SE 8.1 mph - N/A   Clear
12:53 PM 57.2 °F - 37.4 °F 48% 30.30 in 10.0 mi SSE 8.1 mph 19.6 mph N/A   Clear
1:13 PM 57.2 °F - 37.4 °F 48% 30.28 in 10.0 mi SSE 4.6 mph - N/A   Clear
1:33 PM 59.0 °F - 35.6 °F 42% 30.27 in 10.0 mi SE 9.2 mph - N/A   Clear
1:53 PM 60.8 °F - 35.6 °F 39% 30.27 in 10.0 mi SSE 5.8 mph - N/A   Clear
2:14 PM 60.8 °F - 35.6 °F 39% 30.25 in 10.0 mi SSE 5.8 mph - N/A   Clear
2:33 PM 60.8 °F - 35.6 °F 39% 30.25 in 10.0 mi SSE 6.9 mph 16.1 mph N/A   Clear
2:53 PM 60.8 °F - 35.6 °F 39% 30.24 in 10.0 mi SSE 4.6 mph 18.4 mph N/A   Clear
3:13 PM 62.6 °F - 35.6 °F 37% 30.23 in 10.0 mi SSE 6.9 mph 16.1 mph N/A   Clear
3:33 PM 62.6 °F - 35.6 °F 37% 30.23 in 10.0 mi SSE 5.8 mph - N/A   Clear
3:53 PM 62.6 °F - 35.6 °F 37% 30.23 in 10.0 mi SE 8.1 mph - N/A   Clear
4:13 PM 62.6 °F - 33.8 °F 34% 30.22 in 10.0 mi SSE 5.8 mph - N/A   Clear
4:33 PM 62.6 °F - 33.8 °F 34% 30.22 in 10.0 mi SSE 8.1 mph - N/A   Clear
4:53 PM 62.6 °F - 33.8 °F 34% 30.21 in 10.0 mi SSE 6.9 mph - N/A   Clear
5:13 PM 62.6 °F - 35.6 °F 37% 30.21 in 10.0 mi SSE 6.9 mph - N/A   Clear
5:33 PM 62.6 °F - 33.8 °F 34% 30.21 in 10.0 mi SSE 8.1 mph - N/A   Clear
5:53 PM 62.6 °F - 33.8 °F 34% 30.21 in 10.0 mi SSE 6.9 mph - N/A   Clear
6:13 PM 62.6 °F - 35.6 °F 37% 30.20 in 10.0 mi SSE 5.8 mph - N/A   Clear
6:33 PM 60.8 °F - 35.6 °F 39% 30.20 in 10.0 mi SSE 5.8 mph - N/A   Clear
7:14 PM 57.2 °F - 35.6 °F 44% 30.18 in 10.0 mi SSE 5.8 mph - N/A   Clear
7:33 PM 53.6 °F - 37.4 °F 54% 30.18 in 10.0 mi SE 4.6 mph - N/A   Clear
7:53 PM 53.6 °F - 35.6 °F 51% 30.18 in 10.0 mi SE 5.8 mph - N/A   Clear
8:13 PM 53.6 °F - 37.4 °F 54% 30.18 in 10.0 mi SSE 4.6 mph - N/A   Clear
8:33 PM 51.8 °F - 37.4 °F 58% 30.18 in 10.0 mi SSE 5.8 mph - N/A   Clear
8:54 PM 55.4 °F - 35.6 °F 47% 30.17 in 10.0 mi SSE 5.8 mph - N/A   Clear
9:13 PM 55.4 °F - 35.6 °F 47% 30.16 in 10.0 mi SSE 5.8 mph - N/A   Clear
9:33 PM 55.4 °F - 35.6 °F 47% 30.16 in 10.0 mi SSE 3.5 mph - N/A   Clear
9:53 PM 55.4 °F - 35.6 °F 47% 30.16 in 10.0 mi SSE 4.6 mph - N/A   Clear
10:13 PM 53.6 °F - 35.6 °F 51% 30.16 in 10.0 mi SSE 4.6 mph - N/A   Clear
10:33 PM 53.6 °F - 35.6 °F 51% 30.17 in 10.0 mi SSE 4.6 mph - N/A   Clear
10:53 PM 53.6 °F - 35.6 °F 51% 30.17 in 10.0 mi South 4.6 mph - N/A   Clear
11:13 PM 53.6 °F - 35.6 °F 51% 30.18 in 10.0 mi SSE 5.8 mph - N/A   Clear
11:33 PM 53.6 °F - 35.6 °F 51% 30.18 in 10.0 mi South 4.6 mph - N/A   Clear
11:53 PM 51.8 °F - 35.6 °F 54% - 10.0 mi South 4.6 mph - N/A   Clear